CZ-3B DEB, 40184

Orbit data source: Space-Track

CZ-3B DEB, 40184 is space debris in HEO originally from a launch on Mon, 19 Dec 2011 UTC launched from the Xichang Space Center, China (XSC). Debris objects in space refer to the collection of defunct objects orbiting the Earth. Examples of debris include non-operational satellites, rocket bodies, and fragments generated from explosions, collisions, or faulty payload assembly.

Loading next visibility...
Identifier
40184, 2011-077H
Orbit
HEO
Country
Flag of CNCN / PRC
Related business
Manufacturer
CALT
Mission
Spacecraft
Bus & Motor
Unknown
Mass
Unknown
Launch date (UTC)
2011-12-19 (14 years ago)
Launch vehicle
Unknown
Launch site
Xichang Space Center, China (XSC)
Object type
Payload
Rocket body
Debris
Shape & HBR
Unknown shape, 0.4 m
Radar Cross Section
Medium (>0.1 m² and <1 m²)

Expand to show TLE details & history
Last TLE update: 10 hours ago

TLE from 10 hours ago
0 CZ-3B DEB
1 40184U 11077H   26034.21288274  .00000918  00000-0  21782-2 0  9992
2 40184  21.7936 240.1641 7528883   9.3138 359.2471  1.92526880 77400
Epoch: 2026-02-03T05:06Z
TLE epoch observation values (Epoch: 2026-02-03T05:06:33.068Z)
Latitude
0.00017°
Longitude
30.09998°
Altitude
421.834 km
Speed
10.13 km/s
True Right ascension
16h 00m 32s
True Declination
0° 00' 01"
Sunlit
Object was in daylight at epoch
Visualization orbit readout
Latitude
Unknown
Longitude
Unknown
Altitude
Unknown
Speed
Unknown
Apparent Right ascension
Unknown
Apparent Declination
Unknown
Sunlit
N/A
Visualization observer readout
Local Sidereal Time
17:03:30
Azimuth
Unknown
Elevation
Unknown
Doppler factor
Unknown
Orbital elements
Apogee altitude
41,473.876 km
Perigee altitude
367.753 km
Semi-major axis
27,298.952 km
Eccentricity
0.75289
Inclination
21.7936°
RAAN
240.1641°
Arg. of periapsis
9.3138°
True anomaly
351.90843°
Mean anomaly
359.2471°
Eccentric anomaly
356.95756°
Mean motion
0.4812 °/min
Orbital period
748.13 mins
BSTAR
0.0021782
Loading maneuver chart data...
Computing Atmospheric mass density...
Loading historical data...
Loading historical data...
Loading historical data...
Loading historical data...
Loading historical data...
Loading historical data...
Loading historical data...

Documentation

Showing up to 5 results
|